AC0YE Weather Reports


time (UTC)temp
C
wind
direction
speed
KPH
gust
KPH
rain 1hr
cm
rain 24hr
cm
rain mn
cm
humidity
%
barometer
mb
20260906163516 23 0.0 6.4 0.00 0.00 0.00 84 1020.2
20260906163016 23 0.0 3.2 0.00 0.00 0.00 84 1020.3
20260906162536 23 113 1.6 8.0 0.00 0.00 0.00 85 1020.2
20260906162016 23 158 1.6 4.8 0.00 0.00 0.00 84 1020.1
20260906161516 23 113 1.6 9.7 0.00 0.00 0.00 84 1020.1
20260906161016 23 90 1.6 6.4 0.00 0.00 0.00 85 1020.1
20260906160516 23 90 3.2 8.0 0.00 0.00 0.00 85 1020.1
20260906160036 23 135 3.2 8.0 0.00 0.00 0.00 86 1020.0
20260906155516 23 0.0 4.8 0.00 0.00 0.00 85 1020.1
20260906155016 23 68 1.6 6.4 0.00 0.00 0.00 86 1020.1
20260906154516 23 180 1.6 3.2 0.00 0.00 0.00 87 1020.3
20260906154016 23 225 1.6 4.8 0.00 0.00 0.00 87 1020.1
20260906153536 23 90 1.6 4.8 0.00 0.00 0.00 87 1020.0
20260906153016 22 0.0 1.6 0.00 0.00 0.00 88 1020.0
20260906152516 22 0.0 4.8 0.00 0.00 0.00 89 1019.9
20260906152016 22 113 1.6 6.4 0.00 0.00 0.00 89 1019.9
20260906151516 22 135 1.6 4.8 0.00 0.00 0.00 89 1019.9
20260906151016 22 0.0 6.4 0.00 0.00 0.00 89 1020.0
20260906150516 22 158 1.6 4.8 0.00 0.00 0.00 89 1019.9
20260906150016 22 0.0 3.2 0.00 0.00 0.00 90 1019.8
20260906145516 22 90 1.6 9.7 0.00 0.00 0.00 90 1019.7
20260906145016 22 113 1.6 8.0 0.00 0.00 0.00 90 1019.8
20260906144516 22 113 1.6 8.0 0.00 0.00 0.00 90 1019.8
20260906144016 22 0.0 4.8 0.00 0.00 0.00 90 1019.7
20260906143516 22 0.0 3.2 0.00 0.00 0.00 90 1019.8
20260906143016 21 90 1.6 6.4 0.00 0.00 0.00 90 1019.7
20260906142516 21 68 1.6 9.7 0.00 0.00 0.00 91 1019.6
20260906142036 21 90 3.2 12.9 0.00 0.00 0.00 90 1019.7
20260906141516 21 90 1.6 9.7 0.00 0.00 0.00 91 1019.6
20260906141016 21 90 1.6 6.4 0.00 0.00 0.00 91 1019.5
20260906140516 21 90 3.2 14.5 0.00 0.00 0.00 90 1019.6
20260906140016 21 0.0 6.4 0.00 0.00 0.00 91 1019.5
20260906135516 21 0.0 6.4 0.00 0.00 0.00 90 1019.5
20260906135036 21 0.0 6.4 0.00 0.00 0.00 91 1019.6
20260906134536 21 90 1.6 8.0 0.00 0.00 0.00 91 1019.6
20260906134016 21 0.0 3.2 0.00 0.00 0.00 91 1019.5
20260906133536 21 0.0 3.2 0.00 0.00 0.00 91 1019.4
20260906133016 21 0.0 6.4 0.00 0.00 0.00 91 1019.4
20260906132516 21 90 3.2 9.7 0.00 0.00 0.00 90 1019.4
20260906132016 21 90 1.6 6.4 0.00 0.00 0.00 90 1019.3
20260906131536 21 90 1.6 9.7 0.00 0.00 0.00 90 1019.3
20260906131016 21 90 1.6 8.0 0.00 0.00 0.00 91 1019.3
20260906130516 21 90 1.6 6.4 0.00 0.00 0.00 92 1019.2
20260906130016 21 68 1.6 9.7 0.00 0.00 0.00 92 1019.1
20260906125516 21 45 1.6 11.3 0.00 0.00 0.00 92 1018.9
20260906125016 21 68 1.6 4.8 0.00 0.00 0.00 92 1019.0
20260906124516 21 0.0 3.2 0.00 0.00 0.00 93 1019.0
20260906124016 20 0.0 3.2 0.00 0.00 0.00 93 1019.0
20260906123516 20 90 1.6 6.4 0.00 0.00 0.00 94 1019.0
20260906123016 20 90 1.6 4.8 0.00 0.00 0.00 94 1019.0
20260906122536 20 0.0 1.6 0.00 0.00 0.00 95 1018.9
20260906122036 20 0.0 3.2 0.00 0.00 0.00 95 1018.8
20260906121536 20 0.0 3.2 0.00 0.00 0.00 95 1018.8
20260906121016 20 0.0 3.2 0.00 0.00 0.00 95 1018.9
20260906120536 20 90 1.6 4.8 0.00 0.00 0.00 95 1018.9
20260906120016 20 0.0 3.2 0.00 0.00 0.00 95 1018.8
20260906115516 20 0.0 3.2 0.00 0.00 0.00 95 1018.6
20260906115016 20 90 1.6 4.8 0.00 0.00 0.00 95 1018.5
20260906114516 20 0.0 4.8 0.00 0.00 0.00 95 1018.5
20260906114056 20 0.0 4.8 0.00 0.00 0.00 95 1018.5
20260906113516 20 90 1.6 4.8 0.00 0.00 0.00 95 1018.3
20260906113016 20 0.0 4.8 0.00 0.00 0.00 95 1018.3
20260906112516 20 0.0 3.2 0.00 0.00 0.00 95 1018.3
20260906112036 20 0.0 3.2 0.00 0.00 0.00 95 1018.4
20260906111515 20 90 1.6 6.4 0.00 0.00 0.00 95 1018.5
20260906111015 20 0.0 3.2 0.00 0.00 0.00 95 1018.5
20260906110516 20 0.0 3.2 0.00 0.00 0.00 95 1018.4
20260906110016 20 0.0 4.8 0.00 0.00 0.00 95 1018.4
20260906105515 20 0.0 1.6 0.00 0.00 0.00 95 1018.4
20260906105036 20 0.0 1.6 0.00 0.00 0.00 94 1018.4
20260906104515 20 0.0 3.2 0.00 0.00 0.00 94 1018.3
20260906104016 20 90 1.6 4.8 0.00 0.00 0.00 94 1018.5
20260906103536 20 90 1.6 4.8 0.00 0.00 0.00 94 1018.4
20260906103016 20 68 1.6 6.4 0.00 0.00 0.00 94 1018.2
20260906102535 20 68 1.6 4.8 0.00 0.00 0.00 94 1018.3
20260906102015 20 0.0 6.4 0.00 0.00 0.00 94 1018.2
20260906101535 20 0.0 3.2 0.00 0.00 0.00 94 1018.2
20260906101015 20 0.0 1.6 0.00 0.00 0.00 94 1018.1
20260906100516 20 0.0 4.8 0.00 0.00 0.00 94 1018.1
20260906100016 20 0.0 8.0 0.00 0.00 0.00 94 1018.1
20260906095515 21 0.0 3.2 0.00 0.00 0.00 94 1017.9
20260906095015 21 0.0 1.6 0.00 0.00 0.00 94 1017.8
20260906094515 21 0.0 1.6 0.00 0.00 0.00 94 1017.8
20260906094016 21 0.0 3.2 0.00 0.00 0.00 94 1017.8
20260906093515 21 90 1.6 11.3 0.00 0.00 0.00 94 1017.7
20260906093016 21 90 1.6 9.7 0.00 0.00 0.00 94 1017.6
20260906092516 21 0.0 4.8 0.00 0.00 0.00 94 1017.6
20260906092015 21 90 1.6 4.8 0.00 0.00 0.00 94 1017.6
20260906091555 21 90 1.6 8.0 0.00 0.00 0.00 94 1017.6
20260906091016 21 0.0 3.2 0.00 0.00 0.00 94 1017.6
20260906090515 21 0.0 1.6 0.00 0.00 0.00 93 1017.5
20260906090015 21 0.0 3.2 0.00 0.00 0.00 93 1017.5
20260906085516 21 90 1.6 6.4 0.00 0.00 0.00 93 1017.5
20260906085015 22 113 1.6 8.0 0.00 0.00 0.00 93 1017.4
20260906084515 22 90 1.6 6.4 0.00 0.00 0.00 93 1017.6
20260906084035 22 90 1.6 4.8 0.00 0.00 0.00 93 1017.5
20260906083535 22 113 1.6 9.7 0.00 0.00 0.00 93 1017.5
20260906083015 22 90 1.6 3.2 0.00 0.00 0.00 93 1017.6
20260906082515 22 90 1.6 11.3 0.00 0.00 0.00 93 1017.5
20260906082035 22 68 1.6 9.7 0.00 0.00 0.00 93 1017.6
20260906081515 22 90 3.2 12.9 0.00 0.00 0.00 93 1017.6
20260906081015 22 90 1.6 11.3 0.00 0.00 0.00 93 1017.6
20260906080515 22 90 1.6 6.4 0.00 0.00 0.00 93 1017.8
20260906080015 22 0.0 3.2 0.00 0.00 0.00 93 1017.8
20260906075515 22 0.0 4.8 0.00 0.00 0.00 93 1017.6
20260906075015 22 90 1.6 6.4 0.00 0.00 0.00 93 1017.8
20260906074515 22 0.0 3.2 0.00 0.00 0.00 93 1017.9
20260906074015 22 0.0 3.2 0.00 0.00 0.00 93 1017.7
20260906073515 22 68 1.6 4.8 0.00 0.00 0.00 93 1017.8
20260906073035 22 90 1.6 4.8 0.00 0.00 0.00 93 1017.8
20260906072515 22 0.0 3.2 0.00 0.00 0.00 93 1017.8
20260906072015 22 68 1.6 6.4 0.00 0.00 0.00 92 1018.0
20260906071515 22 0.0 4.8 0.00 0.00 0.00 92 1018.0
20260906071017 22 45 1.6 11.3 0.00 0.00 0.00 92 1018.1
20260906070517 22 68 1.6 11.3 0.00 0.00 0.00 92 1018.1
20260906070017 22 0.0 3.2 0.00 0.00 0.00 92 1018.1
20260906065517 22 68 1.6 6.4 0.00 0.00 0.00 92 1018.1
20260906065037 22 0.0 4.8 0.00 0.00 0.00 92 1018.2
20260906064517 22 0.0 3.2 0.00 0.00 0.00 92 1018.1
20260906064017 22 45 1.6 8.0 0.00 0.00 0.00 92 1018.1
20260906063517 22 68 1.6 6.4 0.00 0.00 0.00 92 1018.2
20260906063017 22 0.0 4.8 0.00 0.00 0.00 92 1018.2
20260906062517 22 0.0 6.4 0.00 0.00 0.00 92 1018.2
20260906062017 22 0.0 6.4 0.00 0.00 0.00 92 1018.2
20260906061517 22 0.0 3.2 0.00 0.00 0.00 92 1018.1
20260906061017 22 0.0 1.6 0.00 0.00 0.00 92 1018.0
20260906060537 22 0.0 1.6 0.00 0.00 0.00 92 1018.0
20260906060017 22 0.0 1.6 0.00 0.00 0.00 92 1017.9
20260906055517 22 0.0 3.2 0.00 0.00 0.00 92 1018.0
20260906055017 22 0.0 4.8 0.00 0.00 0.00 92 1018.0
20260906054517 22 0.0 3.2 0.00 0.00 0.00 92 1017.8
20260906054017 22 0.0 3.2 0.00 0.00 0.00 92 1017.9
20260906053517 22 45 1.6 4.8 0.00 0.00 0.00 92 1017.8
20260906053017 22 0.0 4.8 0.00 0.00 0.00 92 1017.8
20260906052517 22 0.0 3.2 0.00 0.00 0.00 92 1017.7
20260906052017 22 45 1.6 6.4 0.00 0.00 0.00 92 1017.9
20260906051517 23 68 1.6 8.0 0.00 0.00 0.00 92 1017.7
20260906051037 23 45 1.6 6.4 0.00 0.00 0.00 91 1017.6
20260906050537 23 0.0 3.2 0.00 0.00 0.00 91 1017.8
20260906050017 23 0.0 3.2 0.00 0.00 0.00 91 1017.5
20260906045515 23 45 1.6 4.8 0.00 0.00 0.00 91 1017.7
20260906045015 23 45 1.6 6.4 0.00 0.00 0.00 91 1017.7
20260906044516 23 45 3.2 6.4 0.00 0.00 0.00 90 1017.8
20260906044015 23 45 1.6 8.0 0.00 0.00 0.00 90 1017.8
20260906043517 23 68 1.6 4.8 0.00 0.00 0.00 90 1017.7
20260906043017 23 45 1.6 6.4 0.00 0.00 0.00 90 1017.6
20260906042517 23 45 3.2 8.0 0.00 0.00 0.00 90 1017.8
20260906042037 23 45 3.2 6.4 0.00 0.00 0.00 89 1017.7
20260906041517 23 23 1.6 3.2 0.00 0.00 0.00 89 1017.6
20260906041017 23 0.0 4.8 0.00 0.00 0.00 89 1017.6
20260906040517 23 0.0 0.0 0.00 0.00 0.00 89 1017.5
20260906040017 23 0.0 0.0 0.00 0.00 0.00 89 1017.4
20260906035537 23 0.0 3.2 0.00 0.00 0.00 89 1017.3
20260906035017 23 0.0 4.8 0.00 0.00 0.00 89 1017.3
20260906034515 23 68 1.6 4.8 0.00 0.00 0.00 89 1017.4
20260906034017 23 45 1.6 6.4 0.00 0.00 0.00 89 1017.4
20260906033517 23 68 1.6 4.8 0.00 0.00 0.00 88 1017.3
20260906033017 23 68 1.6 4.8 0.00 0.00 0.00 88 1017.1
20260906032517 23 45 1.6 8.0 0.00 0.00 0.00 88 1017.2
20260906032017 23 68 1.6 8.0 0.00 0.00 0.00 88 1017.2
20260906031517 23 68 1.6 6.4 0.00 0.00 0.00 88 1017.2
20260906031017 24 45 3.2 8.0 0.00 0.00 0.00 88 1017.2
20260906030517 24 0.0 3.2 0.00 0.00 0.00 88 1017.2
20260906030017 24 23 1.6 6.4 0.00 0.00 0.00 88 1017.2
20260906025557 24 23 1.6 4.8 0.00 0.00 0.00 88 1017.1
20260906025017 24 68 1.6 4.8 0.00 0.00 0.00 88 1017.1
20260906024517 24 68 1.6 3.2 0.00 0.00 0.00 87 1016.9
20260906024017 24 45 1.6 8.0 0.00 0.00 0.00 87 1016.7
20260906023517 24 68 1.6 6.4 0.00 0.00 0.00 87 1016.5
20260906023037 25 45 1.6 4.8 0.00 0.00 0.00 87 1016.5
20260906022537 25 45 3.2 6.4 0.00 0.00 0.00 86 1016.4
20260906022017 25 68 1.6 9.7 0.00 0.00 0.00 86 1016.5
20260906021517 25 68 1.6 6.4 0.00 0.00 0.00 86 1016.3
20260906021037 25 68 1.6 9.7 0.00 0.00 0.00 86 1016.1
20260906020517 25 45 3.2 8.0 0.00 0.00 0.00 86 1016.0
20260906020017 25 45 1.6 8.0 0.00 0.00 0.00 87 1015.9
20260906015557 25 68 1.6 6.4 0.00 0.00 0.00 87 1015.8
20260906015017 25 0.0 3.2 0.00 0.00 0.00 87 1015.7
20260906014517 25 0.0 6.4 0.00 0.00 0.00 87 1015.7
20260906014017 25 0.0 3.2 0.00 0.00 0.00 86 1015.6
20260906013517 25 45 1.6 8.0 0.00 0.00 0.00 86 1015.6
20260906013017 25 68 1.6 6.4 0.00 0.00 0.00 86 1015.6
20260906012517 25 68 3.2 8.0 0.00 0.00 0.00 86 1015.5
20260906012017 25 68 3.2 6.4 0.00 0.00 0.00 86 1015.6
20260906011517 25 68 1.6 6.4 0.00 0.00 0.00 85 1015.5
20260906011017 26 90 3.2 11.3 0.00 0.00 0.00 85 1015.5
20260906010517 26 90 1.6 11.3 0.00 0.00 0.00 85 1015.4
20260906010017 26 68 3.2 6.4 0.00 0.00 0.00 84 1015.4
20260906005517 26 68 1.6 8.0 0.00 0.00 0.00 84 1015.5
20260906005017 26 68 1.6 8.0 0.00 0.00 0.00 84 1015.4
20260906004517 26 0.0 1.6 0.00 0.00 0.00 84 1015.4
20260906004017 26 0.0 3.2 0.00 0.00 0.00 83 1015.3
20260906003517 26 90 1.6 4.8 0.00 0.00 0.00 83 1015.2
20260906003017 26 0.0 1.6 0.00 0.00 0.00 83 1015.1
20260906002517 26 90 1.6 3.2 0.00 0.00 0.00 83 1015.2
20260906002017 26 0.0 3.2 0.00 0.00 0.00 82 1015.2
20260906001537 26 45 1.6 6.4 0.00 0.00 0.00 82 1015.2
20260906001017 26 45 1.6 6.4 0.00 0.00 0.00 82 1015.2
20260906000517 26 45 1.6 8.0 0.00 0.00 0.00 82 1015.1
20260906000017 26 90 1.6 4.8 0.00 0.00 0.00 81 1015.2
20260905235517 27 45 1.6 3.2 0.00 0.00 0.00 81 1015.3
20260905235017 27 68 3.2 9.7 0.00 0.00 0.00 81 1015.3
20260905234517 27 45 4.8 16.1 0.00 0.00 0.00 81 1015.2
20260905234017 27 45 3.2 11.3 0.00 0.00 0.00 81 1015.1
20260905233517 27 68 4.8 9.7 0.00 0.00 0.00 80 1015.1
20260905233017 27 45 3.2 8.0 0.00 0.00 0.00 80 1015.1
20260905232517 27 68 8.0 17.7 0.00 0.00 0.00 79 1015.1
20260905232017 27 45 6.4 14.5 0.00 0.00 0.00 79 1015.0
20260905231517 28 68 6.4 12.9 0.00 0.00 0.00 78 1015.1
20260905231017 28 68 4.8 12.9 0.00 0.00 0.00 79 1015.1
20260905230537 28 68 6.4 16.1 0.00 0.00 0.00 79 1015.1
20260905230017 28 45 8.0 16.1 0.00 0.00 0.00 79 1015.1
20260905225516 28 45 6.4 12.9 0.00 0.00 0.00 79 1015.0
20260905225017 28 45 8.0 16.1 0.00 0.00 0.00 78 1015.0
20260905224517 28 45 8.0 17.7 0.00 0.00 0.00 78 1014.8
20260905224017 28 45 9.7 17.7 0.00 0.00 0.00 78 1015.0
20260905223516 29 45 9.7 20.9 0.00 0.00 0.00 79 1014.9
20260905223037 29 45 6.4 19.3 0.00 0.00 0.00 78 1014.8
20260905222517 29 68 8.0 17.7 0.00 0.00 0.00 78 1014.9
20260905222017 30 45 8.0 16.1 0.00 0.00 0.00 78 1014.8
20260905221517 30 45 6.4 16.1 0.00 0.00 0.00 78 1014.8
20260905221017 30 45 6.4 12.9 0.00 0.00 0.00 78 1014.9
20260905220517 30 45 9.7 19.3 0.00 0.00 0.00 78 1014.9
20260905220017 30 45 6.4 14.5 0.00 0.00 0.00 79 1014.8
20260905215517 30 45 6.4 14.5 0.00 0.00 0.00 78 1014.8
20260905215017 30 68 9.7 24.1 0.00 0.00 0.00 78 1014.8
20260905214516 30 23 9.7 24.1 0.00 0.00 0.00 77 1014.9
20260905214017 30 45 8.0 19.3 0.00 0.00 0.00 77 1015.0
20260905213516 31 45 8.0 17.7 0.00 0.00 0.00 76 1015.0
20260905213017 31 45 6.4 14.5 0.00 0.00 0.00 77 1014.9
20260905212517 31 45 6.4 11.3 0.00 0.00 0.00 76 1015.0
20260905212017 31 68 6.4 19.3 0.00 0.00 0.00 75 1014.9
20260905211517 31 45 4.8 9.7 0.00 0.00 0.00 74 1015.0
20260905211016 31 45 8.0 20.9 0.00 0.00 0.00 74 1015.0
20260905210537 31 23 6.4 14.5 0.00 0.00 0.00 74 1015.0
20260905210016 31 23 6.4 16.1 0.00 0.00 0.00 75 1015.1
20260905205517 31 45 8.0 16.1 0.00 0.00 0.00 75 1015.1
20260905205016 31 23 6.4 14.5 0.00 0.00 0.00 75 1015.1
20260905204517 31 23 6.4 12.9 0.00 0.00 0.00 75 1014.9
20260905204036 31 45 8.0 12.9 0.00 0.00 0.00 75 1015.0
20260905203537 31 23 4.8 11.3 0.00 0.00 0.00 75 1015.0
20260905203016 31 23 6.4 14.5 0.00 0.00 0.00 74 1015.2
20260905202516 31 23 4.8 16.1 0.00 0.00 0.00 76 1015.2
20260905202016 31 0 1.6 11.3 0.00 0.00 0.00 76 1015.2
20260905201517 31 45 6.4 14.5 0.00 0.00 0.00 75 1015.1
20260905201017 31 45 4.8 11.3 0.00 0.00 0.00 74 1015.0
20260905200536 32 23 1.6 6.4 0.00 0.00 0.00 74 1015.0
20260905200037 32 23 4.8 16.1 0.00 0.00 0.00 73 1015.1
20260905195516 32 338 1.6 9.7 0.00 0.00 0.00 75 1015.1
20260905195016 32 23 6.4 12.9 0.00 0.00 0.00 74 1015.1
20260905194516 32 45 4.8 9.7 0.00 0.00 0.00 74 1015.3
20260905194017 32 45 3.2 11.3 0.00 0.00 0.00 76 1015.1
20260905193536 31 45 6.4 17.7 0.00 0.00 0.00 76 1015.4
20260905193016 31 45 4.8 12.9 0.00 0.00 0.00 76 1015.6
20260905192516 31 45 6.4 11.3 0.00 0.00 0.00 76 1015.7
20260905192016 31 23 4.8 11.3 0.00 0.00 0.00 77 1015.7
20260905191516 31 45 6.4 14.5 0.00 0.00 0.00 77 1015.7
20260905191016 31 45 4.8 12.9 0.00 0.00 0.00 77 1015.7
20260905190517 31 45 6.4 16.1 0.00 0.00 0.00 77 1015.7
20260905190016 31 45 4.8 9.7 0.00 0.00 0.00 76 1015.7
20260905185516 31 45 6.4 11.3 0.00 0.00 0.00 76 1015.6
20260905185016 31 45 4.8 9.7 0.00 0.00 0.00 76 1015.6
20260905184516 31 45 4.8 11.3 0.00 0.00 0.00 76 1015.8
20260905184016 31 45 6.4 12.9 0.00 0.00 0.00 77 1015.8
20260905183516 31 23 4.8 14.5 0.00 0.00 0.00 76 1015.8
20260905183017 31 23 1.6 6.4 0.00 0.00 0.00 76 1015.7
20260905182516 31 45 1.6 8.0 0.00 0.00 0.00 77 1015.8
20260905182036 31 68 3.2 11.3 0.00 0.00 0.00 76 1015.7
20260905181517 31 90 3.2 8.0 0.00 0.00 0.00 76 1015.6
20260905181016 31 68 3.2 11.3 0.00 0.00 0.00 75 1015.7
20260905180517 31 45 4.8 12.9 0.00 0.00 0.00 77 1015.8
20260905180036 31 45 1.6 8.0 0.00 0.00 0.00 77 1015.7
20260905175517 31 45 4.8 11.3 0.00 0.00 0.00 77 1015.7
20260905175016 31 45 3.2 8.0 0.00 0.00 0.00 78 1015.6
20260905174516 31 45 4.8 9.7 0.00 0.00 0.00 78 1015.7
20260905174036 31 45 6.4 14.5 0.00 0.00 0.00 78 1015.7
20260905173516 31 45 3.2 11.3 0.00 0.00 0.00 77 1015.6
20260905173036 31 23 3.2 6.4 0.00 0.00 0.00 77 1015.7
20260905172516 31 23 4.8 9.7 0.00 0.00 0.00 77 1015.7
20260905172036 30 68 4.8 12.9 0.00 0.00 0.00 78 1015.8
20260905171516 30 68 6.4 12.9 0.00 0.00 0.00 77 1015.8
20260905171036 31 68 4.8 11.3 0.00 0.00 0.00 77 1015.8
20260905170516 30 23 3.2 8.0 0.00 0.00 0.00 78 1015.9
20260905170016 30 45 4.8 12.9 0.00 0.00 0.00 78 1016.0
20260905165516 30 45 3.2 8.0 0.00 0.00 0.00 78 1015.9
20260905165016 30 45 4.8 11.3 0.00 0.00 0.00 77 1016.0
20260905164516 30 45 4.8 12.9 0.00 0.00 0.00 77 1016.1
20260905164016 30 45 6.4 12.9 0.00 0.00 0.00 78 1016.1